Probability
0 0 0 0 0 0 0 0 0 0 0 0 0 0 0 0 0 0 0 0 0 1 3 5 9 12 13 13 12 11 10 9 8 7 7 7 7 5 1 0 0 0 0 0 0 1 0 0 0
0 0 0 0 0 0 0 0 0 0 0 0 0 0 0 0 0 0 0 1 2 2 3 5 8 12 14 14 13 12 11 10 10 8 7 8 8 6 3 1 1 1 1 0 1 1 1 0 0
0 0 0 0 0 0 0 0 0 0 0 0 0 0 0 0 0 0 1 3 5 5 4 5 8 11 14 15 14 13 12 12 12 11 9 8 9 8 5 3 3 3 2 1 1 1 1 1 1
0 0 0 0 0 0 0 0 0 0 0 0 0 0 0 0 0 1 3 7 9 9 7 7 9 12 14 15 15 13 12 12 13 14 12 9 8 8 8 6 5 4 3 2 1 1 1 1 1
0 0 0 0 0 0 0 0 0 0 0 0 0 0 1 1 1 3 5 9 12 12 11 10 10 13 15 14 14 13 11 10 12 14 13 11 9 8 9 8 7 5 4 3 2 2 2 1 1
0 0 0 0 0 0 0 0 0 0 0 0 0 0 0 1 2 4 6 9 11 12 13 12 10 11 14 13 12 12 12 10 11 12 13 12 11 9 9 10 10 7 5 4 4 4 3 1 0
0 0 0 0 0 0 0 0 0 0 0 0 0 0 0 1 3 5 6 7 9 10 11 11 9 10 12 12 11 12 13 11 11 11 11 11 11 10 11 12 12 10 8 7 6 6 5 2 1
0 0 0 0 0 0 0 0 0 0 0 0 0 0 0 1 4 6 6 6 6 6 8 9 10 10 10 10 10 11 12 11 10 10 10 9 10 10 10 10 11 10 10 9 8 7 6 4 3
0 0 0 0 0 0 0 0 0 0 0 0 0 0 1 3 5 6 5 4 3 3 5 8 9 9 9 8 8 9 10 10 10 9 9 9 10 10 9 8 7 8 10 10 8 6 6 4 3
0 0 0 0 0 0 0 0 0 0 0 0 0 0 1 3 5 5 4 2 1 2 4 6 8 8 7 5 5 6 7 8 9 9 9 9 10 9 7 5 3 5 7 8 6 5 4 3 2
0 0 0 0 0 0 0 0 0 0 0 0 1 1 2 3 4 4 3 1 1 3 3 5 8 8 6 4 4 4 5 6 6 7 8 9 9 7 4 2 1 2 4 5 4 3 3 2 1
0 0 0 0 0 0 0 0 0 0 0 0 1 1 1 2 3 3 2 2 2 2 2 4 7 9 7 5 4 4 4 4 4 5 7 8 8 5 2 0 0 2 3 3 3 3 3 1 0
0 0 0 0 0 0 0 0 0 0 0 1 2 1 1 2 2 2 1 2 2 1 1 3 6 9 8 6 6 5 4 3 3 4 6 7 6 3 1 0 0 1 2 3 3 3 2 1 0
0 0 0 0 0 0 0 0 0 0 0 1 2 2 1 1 1 1 0 1 1 0 0 2 6 8 9 7 6 6 5 4 4 5 5 5 3 1 0 0 0 0 1 3 3 3 2 1 0
0 0 0 0 0 0 0 0 0 0 0 1 2 3 1 0 0 0 0 0 0 0 1 3 5 7 8 8 7 6 6 5 5 6 5 2 1 0 0 0 0 0 1 2 3 3 2 1 0
0 0 0 0 0 0 0 0 0 0 0 1 2 3 2 1 0 0 0 0 0 0 1 3 4 6 8 8 7 6 6 5 5 5 4 2 1 0 0 0 0 0 0 1 3 3 3 1 0
0 0 0 0 0 0 0 0 0 0 0 1 2 3 3 1 0 0 0 0 0 0 1 2 3 5 8 8 6 5 4 4 3 3 3 3 2 1 0 0 0 0 0 1 2 3 3 2 1
0 0 0 0 0 0 0 0 0 0 0 1 2 3 3 2 1 0 0 0 0 0 0 1 3 4 6 7 5 4 3 3 2 2 2 3 3 1 0 0 0 0 0 1 2 3 3 2 1
0 0 0 0 0 0 0 0 0 0 0 1 2 3 3 3 2 1 0 0 0 0 0 1 2 4 6 6 5 4 3 2 3 3 2 3 3 2 1 0 0 0 0 1 2 3 3 2 1
0 0 0 0 0 0 0 0 0 0 0 1 2 3 3 3 3 2 1 0 0 0 0 1 2 4 5 6 6 4 3 3 3 4 3 3 3 2 1 0 0 0 0 1 2 3 3 2 1
0 0 0 0 0 0 0 0 0 0 0 1 2 3 3 3 3 3 1 0 0 0 0 0 1 3 4 5 6 4 3 3 3 4 4 4 3 2 1 0 0 0 0 1 2 3 3 2 1
0 0 0 0 0 0 0 0 0 0 0 0 1 2 3 3 3 3 2 1 0 0 0 0 1 2 3 4 6 5 4 3 3 4 5 5 4 3 1 0 0 0 0 1 2 3 2 1 0
0 0 0 0 0 0 0 0 0 0 0 0 0 1 2 3 3 3 3 2 1 0 0 0 0 1 3 4 5 5 3 3 3 4 5 6 4 3 2 1 0 0 0 0 1 1 1 1 0
0 0 0 0 0 0 0 0 0 0 0 0 0 0 1 3 3 3 3 3 2 1 1 0 0 1 2 3 4 4 2 1 2 3 4 5 5 4 3 1 0 0 0 0 0 0 0 0 0
0 0 0 0 0 0 0 0 0 0 0 0 0 0 1 2 3 3 3 3 3 2 1 0 0 1 2 3 3 3 2 1 1 1 2 4 5 5 3 1 0 0 0 0 0 0 0 0 0
0 0 0 0 0 0 0 0 0 0 0 0 0 0 0 1 3 3 3 3 3 3 2 0 0 0 1 3 3 3 1 0 0 0 1 2 4 5 5 2 0 0 0 0 0 0 1 0 0
0 0 0 0 0 0 0 0 0 0 0 0 0 0 0 1 2 3 3 3 3 3 2 1 0 0 1 2 3 2 1 0 0 0 0 1 1 3 5 4 2 0 0 0 0 0 0 0 0
0 0 0 0 0 0 0 0 0 0 0 0 0 0 0 1 2 3 3 3 3 3 3 2 1 0 1 2 3 1 0 0 0 0 0 0 0 1 3 5 3 1 0 0 0 0 0 0 0
0 0 0 0 0 0 0 0 0 0 0 0 0 0 0 0 1 3 3 3 3 3 3 2 1 0 1 2 2 1 0 0 0 0 0 0 0 0 2 4 5 3 1 0 0 0 0 0 0
0 0 0 0 0 0 0 0 0 0 0 0 0 0 0 0 1 2 3 3 3 3 3 2 1 0 1 2 1 0 0 0 0 0 0 0 0 0 1 3 5 4 2 1 0 0 0 0 0
Wind_Speed
7 3 2 4 7 5 1 3 1 1 0 1 1 3 5 4 3 3 1 1 2 3 2 3 5 6 6 7 8 7 7 7 7 8 9 9 9 9 9 9 9 9 9 10 10 10 9 10 10
2 2 5 6 5 1 4 3 2 2 1 2 3 3 3 2 1 2 0 1 3 3 3 3 5 7 7 7 8 8 7 7 7 8 8 8 8 8 8 8 8 9 9 9 9 9 9 9 9
1 4 5 5 4 5 4 2 3 1 0 2 2 2 2 1 1 1 1 3 4 3 3 3 6 7 7 7 7 8 7 7 7 7 7 7 7 7 7 7 8 8 8 8 8 8 8 8 8
3 5 6 5 2 4 3 2 1 0 2 2 3 2 1 1 0 1 2 4 5 3 3 3 6 7 7 7 7 7 7 7 7 6 6 6 7 6 7 7 7 7 7 7 8 8 8 8 8
5 5 5 1 3 3 2 1 1 1 1 1 3 3 0 3 1 3 4 4 5 3 3 3 6 6 6 7 6 7 6 6 6 6 6 6 6 6 7 7 7 6 6 7 7 7 7 7 7
5 5 4 2 4 3 2 1 1 1 1 1 3 3 1 1 3 4 4 4 4 4 3 3 5 6 6 6 6 6 6 6 6 6 6 6 6 6 6 6 6 6 6 6 6 6 6 6 6
5 4 3 4 3 3 2 1 2 2 2 2 3 3 1 0 1 4 4 4 4 3 3 3 3 3 5 5 5 5 5 6 6 6 5 6 6 6 5 5 5 5 6 6 6 6 7 7 6
4 5 2 3 3 4 1 1 1 2 2 1 3 5 3 2 3 4 4 4 4 3 3 2 2 3 3 3 4 5 5 5 5 5 5 6 6 5 5 5 4 5 5 6 7 7 7 7 7
4 4 3 5 5 3 1 0 1 1 2 0 0 2 2 5 5 5 3 2 2 2 2 2 2 2 3 2 3 4 5 5 5 5 5 5 3 3 3 4 5 5 5 6 7 7 7 7 7
4 3 6 4 4 2 1 1 1 1 1 0 1 1 3 5 6 6 5 4 2 2 0 1 2 2 2 2 2 2 2 2 3 3 3 3 3 3 3 4 5 5 5 5 6 7 6 6 3
3 5 3 2 2 1 1 1 1 3 3 5 5 4 4 5 5 6 5 5 4 3 2 1 1 2 2 1 1 1 1 2 2 3 3 2 2 2 3 2 3 3 4 3 4 4 3 3 2
2 2 2 2 0 0 1 1 1 4 6 4 5 6 6 6 7 7 6 5 3 2 2 2 2 2 2 2 1 1 1 1 1 2 2 2 2 2 2 2 2 2 2 2 2 2 3 3 3
1 2 1 2 1 1 1 2 3 5 5 1 2 4 6 7 6 5 4 3 3 3 3 2 2 3 2 2 1 1 1 1 1 1 1 2 1 2 2 1 1 1 2 2 2 2 2 2 2
1 1 2 3 2 2 2 3 3 6 2 1 3 4 5 6 5 4 4 4 4 4 3 2 2 3 3 2 2 1 1 1 1 1 1 1 1 1 1 1 1 1 1 2 2 2 1 1 1
0 1 4 3 2 2 0 5 6 5 1 2 4 4 5 5 4 5 5 5 5 4 3 3 3 3 3 2 2 1 1 1 1 1 1 1 1 1 1 1 1 0 1 2 2 2 1 1 2
2 1 3 4 1 1 2 8 5 3 3 5 5 4 4 5 4 4 4 4 4 3 3 3 2 3 3 2 2 1 1 1 1 1 1 1 1 1 1 1 0 0 1 1 1 1 2 1 1
1 1 4 5 2 1 3 8 6 3 4 6 6 5 5 4 4 3 3 3 3 4 4 3 2 3 3 2 2 1 1 1 1 1 1 1 1 1 1 1 0 1 1 1 1 1 2 1 1
3 3 4 5 3 2 5 9 8 5 5 7 6 5 5 5 6 4 3 3 3 3 3 3 3 2 2 2 1 1 1 1 1 1 1 1 1 1 1 1 1 1 1 1 1 1 1 1 1
3 3 5 6 3 3 8 11 11 7 5 7 7 6 6 7 5 2 2 3 2 2 2 3 2 2 2 2 2 1 1 1 0 1 1 1 1 1 1 1 1 1 1 2 2 1 1 1 1
3 4 5 5 3 3 7 11 10 8 8 7 8 8 7 5 2 2 2 3 3 3 3 3 3 3 3 2 2 2 2 1 1 1 1 1 1 1 1 2 1 1 1 1 1 2 1 1 1
4 6 5 5 5 3 4 9 6 6 5 6 6 7 6 7 6 5 3 4 3 3 4 3 3 3 2 2 1 1 1 0 0 1 1 1 1 1 2 2 2 2 2 2 2 2 3 2 1
6 4 4 3 2 4 1 7 8 5 5 7 7 6 6 6 6 5 5 4 4 5 4 3 3 3 2 2 3 3 2 2 2 2 2 1 1 1 2 2 2 2 2 2 3 3 2 3 2
4 1 2 2 3 4 2 4 10 2 6 9 7 6 6 6 6 5 5 5 4 4 3 3 3 3 3 3 3 3 3 2 1 1 2 2 1 1 2 2 2 2 2 2 2 2 3 3 3
2 2 2 2 2 5 6 6 10 5 8 6 6 5 5 5 4 4 4 3 2 2 2 3 3 3 3 3 3 4 4 3 2 2 2 2 1 1 2 2 2 2 2 2 3 3 3 3 3
2 3 3 3 2 7 3 6 11 7 6 6 6 6 4 4 4 4 3 3 3 3 3 3 3 3 3 3 4 4 4 5 5 4 4 3 2 2 2 2 2 2 2 3 2 3 3 4 4
3 5 6 5 5 5 2 8 9 5 4 4 4 3 2 3 4 4 5 5 4 4 3 3 3 3 3 4 4 3 4 3 3 4 4 4 3 3 3 3 3 3 3 3 3 2 3 3 3
3 4 3 3 1 3 7 8 9 3 3 3 2 2 3 4 4 4 4 5 5 4 4 4 4 3 3 4 3 3 4 4 4 4 3 3 3 2 3 3 3 3 3 3 2 2 3 2 3
2 5 4 3 2 5 6 5 6 5 5 4 4 4 4 3 4 4 4 4 4 4 3 3 3 3 3 2 3 3 3 4 4 4 4 4 3 2 3 2 3 3 2 2 2 2 2 2 2
2 2 3 3 3 3 5 8 5 5 4 5 6 5 4 4 5 4 4 3 3 2 2 2 2 1 1 2 2 2 2 2 3 3 4 3 3 3 3 3 3 3 2 2 2 2 2 3 2
3 4 5 4 5 4 4 10 4 3 3 3 4 4 4 4 4 3 3 2 2 2 2 2 1 1 1 1 1 1 2 2 2 3 3 3 3 3 3 3 3 3 3 3 3 3 3 3 3
Wind_Direction
347 3 57 57 55 53 226 248 229 266 283 17 86 113 133 138 151 172 235 112 111 126 135 131 115 102 94 97 105 101 97 99 101 100 99 99 98 95 93 90 87 85 82 79 76 78 82 83 83
342 15 53 60 88 121 261 244 217 223 192 109 63 74 80 72 41 100 90 145 117 119 114 121 111 104 95 90 95 98 97 95 97 100 99 98 98 97 95 92 88 84 83 80 77 76 80 82 81
22 49 78 76 120 183 214 219 203 242 126 109 79 55 92 118 111 158 224 134 108 100 97 117 109 106 101 94 89 93 93 88 86 91 97 99 99 96 96 94 90 86 83 82 80 78 81 83 82
64 47 56 80 198 223 220 241 210 74 33 52 107 80 52 27 179 197 117 119 109 98 91 111 110 106 102 97 91 91 96 93 87 84 86 97 101 99 95 92 91 89 87 86 84 81 83 82 81
57 74 67 59 243 254 259 266 168 155 148 78 118 125 91 352 41 107 110 112 114 101 85 97 102 104 101 98 96 92 94 101 95 90 84 85 95 98 93 90 90 92 92 91 89 86 84 85 83
58 68 96 215 247 270 274 258 167 139 133 107 124 128 183 29 97 115 111 107 105 102 81 75 93 94 99 100 96 91 86 89 96 91 85 83 84 91 92 92 93 93 93 91 90 90 88 86 86
104 103 162 199 231 268 259 203 160 157 158 198 159 131 216 50 125 117 108 98 83 84 80 67 65 77 85 91 93 89 86 84 84 86 85 83 82 85 90 88 91 93 92 88 88 89 87 79 77
117 109 147 206 209 244 260 130 148 156 190 170 141 152 202 198 139 108 96 90 81 69 68 70 66 70 73 78 85 81 79 78 76 78 78 75 73 75 80 83 83 88 93 92 90 87 84 79 73
85 89 198 213 200 231 212 114 343 61 116 90 196 187 192 136 127 113 100 83 80 69 53 67 65 66 74 73 75 74 74 71 68 70 73 69 64 61 62 71 73 84 91 92 90 86 79 73 70
93 160 220 216 193 202 213 190 206 82 82 261 306 39 112 138 149 152 160 169 169 173 159 90 95 87 85 82 76 71 66 66 65 64 62 63 60 52 54 61 68 75 79 80 78 76 72 63 54
133 190 223 238 208 180 207 261 202 156 228 222 215 193 156 159 164 175 182 183 189 189 183 178 140 117 107 101 89 80 69 61 62 66 61 65 66 54 49 51 50 50 60 62 59 61 58 60 59
143 243 226 253 262 191 212 215 243 215 232 228 202 175 169 176 185 191 191 195 190 186 192 192 174 148 134 123 112 103 91 78 67 62 60 72 72 61 54 53 53 59 60 64 59 59 58 60 59
188 256 279 282 300 234 215 230 235 252 259 247 158 162 182 195 201 202 196 194 187 190 200 197 179 163 152 139 137 110 121 121 107 80 68 75 88 81 71 65 62 74 79 80 75 69 63 61 55
209 251 292 288 268 242 219 263 237 256 243 159 168 193 201 205 203 195 192 199 198 196 198 196 180 167 151 149 149 150 146 133 112 102 100 97 100 105 101 85 73 86 102 107 101 88 77 59 58
101 351 316 280 241 234 165 284 234 243 183 212 222 222 219 224 213 205 201 200 199 196 192 190 181 159 157 159 159 146 143 129 129 142 129 120 112 118 124 125 106 126 116 112 108 92 78 66 55
53 50 283 279 243 228 168 261 252 212 191 232 243 237 232 232 224 222 211 201 195 183 184 192 179 164 167 165 159 152 140 133 143 155 147 142 130 128 126 131 154 140 115 115 124 120 96 60 42
35 246 251 283 247 198 202 255 265 227 215 240 243 240 234 240 243 236 215 199 190 184 181 185 177 173 174 164 152 146 141 144 160 156 150 159 148 143 140 164 176 134 123 127 148 121 127 113 49
227 230 242 251 268 239 246 258 271 257 234 245 246 240 231 230 236 226 201 191 185 182 176 179 177 172 166 154 135 116 110 145 151 168 173 165 165 151 144 148 145 136 138 144 142 138 109 128 133
205 219 249 260 271 248 251 263 268 261 242 244 248 241 233 236 239 211 188 180 169 171 173 180 174 183 167 166 172 176 199 217 205 196 189 181 170 163 152 147 150 162 170 182 167 146 132 105 103
212 245 261 282 287 251 267 269 263 245 232 227 232 235 231 231 229 205 186 177 178 184 187 187 184 185 191 192 188 182 186 204 211 217 221 208 186 178 172 164 171 180 163 158 168 146 148 143 116
232 222 237 265 314 290 300 288 259 249 236 240 234 229 225 214 210 210 200 194 189 194 196 194 196 189 193 186 156 129 111 99 207 230 244 250 226 196 185 182 178 183 174 187 193 179 166 175 174
246 223 224 253 288 284 267 286 274 252 261 251 246 238 232 223 211 206 202 202 204 208 203 191 191 191 187 170 165 171 184 206 225 222 222 240 223 203 196 185 180 183 188 195 201 184 181 170 182
226 206 208 236 222 279 242 245 279 269 258 256 249 242 236 222 211 208 205 205 211 209 198 194 187 189 182 177 180 181 193 209 213 213 211 224 224 212 206 191 186 193 199 202 205 194 186 185 183
171 64 52 59 97 261 224 211 273 236 232 254 253 251 240 223 213 209 206 197 206 200 188 185 188 193 186 188 195 197 197 197 195 216 218 227 223 221 221 202 198 206 208 204 203 198 196 196 194
105 95 17 338 303 252 206 220 252 247 237 234 246 252 245 219 204 202 200 197 201 194 191 190 191 202 198 198 207 211 206 199 204 213 217 220 218 219 226 215 211 213 215 205 197 196 209 205 199
202 158 169 215 239 275 250 237 254 260 270 260 251 245 237 220 210 208 206 203 203 202 196 191 198 209 205 209 219 219 212 210 216 217 216 219 219 218 214 210 213 217 211 202 198 201 212 209 208
170 196 169 149 256 269 259 276 297 273 298 298 276 258 240 229 226 218 211 208 205 202 201 198 200 207 210 217 221 220 216 213 215 217 215 223 224 218 208 205 207 213 206 197 189 202 212 205 207
168 150 123 156 206 264 279 268 258 277 275 284 275 259 255 240 234 228 215 212 209 205 202 196 198 205 216 218 220 225 221 214 210 205 207 213 216 209 201 208 206 208 208 197 182 198 210 200 217
148 158 152 164 190 204 272 270 234 240 251 257 259 254 247 240 235 230 224 213 204 197 187 191 198 196 211 215 225 226 221 209 202 195 203 210 206 197 199 209 202 203 206 203 190 200 198 201 216
199 194 159 177 234 211 237 269 277 254 281 284 283 280 270 248 241 232 216 199 191 198 195 196 199 207 220 209 204 207 193 190 192 196 203 196 197 202 203 199 196 201 205 204 199 202 205 209 220